Overview Statistics Trail Chart Weather Telemetry Raw packets
 

This is the latest recevied weather packets stored in our database for station/object KG5MMT-12. If no packets are shown the sender has not sent any weather packets the latest 10 day(s).

<< 91 92 93 94 95 96 97 >>
Time Temp. Humidity Pressure Rain* Wind** Luminosity Snow
1788021255 26.67° C 33% 0 hPa 0 mm - - -
1788020955 26.67° C 36% 0 hPa 0 mm - - -
1788020655 26.67° C 35% 0 hPa 0 mm - - -
1788020355 26.11° C 32% 0 hPa 0 mm - - -
1788020055 26.11° C 35% 0 hPa 0 mm - - -
1788019755 26.11° C 37% 0 hPa 0 mm - - -
1788019455 25.56° C 36% 0 hPa 0 mm - - -
1788019155 25° C 38% 0 hPa 0 mm - - -
1788018855 24.44° C 43% 0 hPa 0 mm - - -
1788018555 23.89° C 51% 0 hPa 0 mm - - -
1788018255 23.33° C 46% 0 hPa 0 mm - - -
1788017955 22.22° C 62% 0 hPa 0 mm - - -
1788017655 21.11° C 57% 0 hPa 0 mm - - -
1788017355 20° C 71% 0 hPa 0 mm - - -
1788017055 19.44° C 73% 0 hPa 0 mm - - -
1788016755 18.89° C 74% 0 hPa 0 mm - - -
1788016455 18.33° C 76% 0 hPa 0 mm - - -
1788016155 17.78° C 74% 0 hPa 0 mm - - -
1788015855 17.22° C 77% 0 hPa 0 mm - - -
1788015555 16.67° C 79% 0 hPa 0 mm - - -
1788015256 16.11° C 80% 0 hPa 0 mm - - -
1788014955 15.56° C 84% 0 hPa 0 mm - - -
1788014655 15° C 85% 0 hPa 0 mm - - -
1788014355 14.44° C 87% 0 hPa 0 mm - - -
1788014055 13.89° C 87% 0 hPa 0 mm - - -

* Rain latest hour (hover to see other rain measurements)
** Current wind speed in m/s (hover to see current wind gust speed)